TimeCDT,TemperatureF,Dew PointF,Humidity,Sea Level PressureIn,VisibilityMPH,Wind Direction,Wind SpeedMPH,Gust SpeedMPH,PrecipitationIn,Events,Conditions,WindDirDegrees,DateUTC
12:15 AM,60.8,59.0,94,30.22,7.0,SE,3.5,-,N/A,,Clear,130,2012-10-12 05:15:00
12:35 AM,60.8,59.0,94,30.22,8.0,SSE,3.5,-,N/A,,Clear,150,2012-10-12 05:35:00
1:15 AM,62.6,59.0,88,30.21,7.0,SE,3.5,-,N/A,,Clear,140,2012-10-12 06:15:00
1:35 AM,62.6,59.0,88,30.21,7.0,Calm,Calm,-,N/A,,Clear,0,2012-10-12 06:35:00
1:55 AM,62.6,59.0,88,30.22,7.0,Calm,Calm,-,N/A,,Clear,0,2012-10-12 06:55:00
2:15 AM,62.6,59.0,88,30.21,6.0,Calm,Calm,-,N/A,,Scattered Clouds,0,2012-10-12 07:15:00
2:35 AM,62.6,59.0,88,30.21,6.0,Calm,Calm,-,N/A,,Partly Cloudy,0,2012-10-12 07:35:00
2:55 AM,60.8,59.0,94,30.21,5.0,Calm,Calm,-,N/A,,Clear,0,2012-10-12 07:55:00
3:15 AM,60.8,59.0,94,30.21,5.0,Calm,Calm,-,N/A,,Clear,0,2012-10-12 08:15:00
3:35 AM,60.8,59.0,94,30.21,5.0,Calm,Calm,-,N/A,,Clear,0,2012-10-12 08:35:00
3:55 AM,62.6,59.0,88,30.21,5.0,SSW,3.5,-,N/A,,Clear,200,2012-10-12 08:55:00
4:15 AM,62.6,60.8,94,30.21,5.0,South,3.5,-,N/A,,Clear,190,2012-10-12 09:15:00
4:35 AM,62.6,59.0,88,30.21,5.0,South,3.5,-,N/A,,Clear,190,2012-10-12 09:35:00
4:55 AM,62.6,60.8,94,30.21,5.0,South,4.6,-,N/A,,Clear,190,2012-10-12 09:55:00
5:15 AM,62.6,60.8,94,30.21,5.0,South,3.5,-,N/A,,Clear,190,2012-10-12 10:15:00
5:35 AM,62.6,59.0,88,30.22,5.0,South,3.5,-,N/A,,Clear,190,2012-10-12 10:35:00
5:55 AM,62.6,59.0,88,30.23,5.0,Calm,Calm,-,N/A,,Clear,0,2012-10-12 10:55:00
6:15 AM,60.8,59.0,94,30.24,5.0,Calm,Calm,-,N/A,,Clear,0,2012-10-12 11:15:00
6:35 AM,59.0,59.0,100,30.24,3.0,Calm,Calm,-,N/A,,Clear,0,2012-10-12 11:35:00
6:55 AM,59.0,57.2,94,30.24,2.0,Calm,Calm,-,N/A,,Clear,0,2012-10-12 11:55:00
7:15 AM,59.0,59.0,100,30.24,2.0,Calm,Calm,-,N/A,,Scattered Clouds,0,2012-10-12 12:15:00
7:35 AM,60.8,59.0,94,30.24,4.0,SSW,4.6,-,N/A,,Partly Cloudy,210,2012-10-12 12:35:00
7:55 AM,62.6,60.8,94,30.25,5.0,SW,5.8,-,N/A,,Clear,220,2012-10-12 12:55:00
8:15 AM,64.4,60.8,88,30.25,5.0,SW,5.8,-,N/A,,Clear,230,2012-10-12 13:15:00
8:55 AM,66.2,62.6,88,30.26,6.0,SW,6.9,-,N/A,,Haze,230,2012-10-12 13:55:00
9:15 AM,68.0,62.6,83,30.27,5.0,SW,5.8,-,N/A,,Haze,220,2012-10-12 14:15:00
10:15 AM,73.4,62.6,69,30.29,7.0,WSW,10.4,-,N/A,,Scattered Clouds,240,2012-10-12 15:15:00
10:55 AM,75.2,64.4,69,30.30,7.0,SW,3.5,-,N/A,,Mostly Cloudy,230,2012-10-12 15:55:00
11:15 AM,75.2,64.4,69,30.30,7.0,West,5.8,-,N/A,,Scattered Clouds,280,2012-10-12 16:15:00
12:15 PM,77.0,64.4,65,30.29,8.0,NW,5.8,-,N/A,,Mostly Cloudy,310,2012-10-12 17:15:00
12:35 PM,77.0,66.2,69,30.28,7.0,SW,6.9,-,N/A,,Mostly Cloudy,220,2012-10-12 17:35:00
12:55 PM,77.0,64.4,65,30.27,7.0,WSW,5.8,-,N/A,,Mostly Cloudy,250,2012-10-12 17:55:00
1:35 PM,78.8,64.4,61,30.25,7.0,West,5.8,-,N/A,,Scattered Clouds,280,2012-10-12 18:35:00
1:55 PM,77.0,64.4,65,30.24,7.0,West,4.6,-,N/A,,Scattered Clouds,260,2012-10-12 18:55:00
2:35 PM,77.0,64.4,65,30.23,7.0,WNW,3.5,-,N/A,,Scattered Clouds,290,2012-10-12 19:35:00
2:55 PM,77.0,64.4,65,30.23,8.0,Calm,Calm,-,N/A,,Scattered Clouds,0,2012-10-12 19:55:00
3:15 PM,77.0,66.2,69,30.23,8.0,NNW,3.5,-,N/A,,Scattered Clouds,340,2012-10-12 20:15:00
4:15 PM,77.0,66.2,69,30.23,5.0,NW,3.5,-,N/A,,Haze,320,2012-10-12 21:15:00
4:35 PM,77.0,66.2,69,30.23,6.0,Calm,Calm,-,N/A,,Haze,0,2012-10-12 21:35:00
4:55 PM,75.2,66.2,73,30.23,8.0,Calm,Calm,-,N/A,,Clear,0,2012-10-12 21:55:00
5:35 PM,73.4,68.0,83,30.22,6.0,Calm,Calm,-,N/A,,Haze,0,2012-10-12 22:35:00
6:35 PM,69.8,68.0,94,30.21,5.0,Calm,Calm,-,N/A,,Clear,0,2012-10-12 23:35:00
6:55 PM,68.0,66.2,94,30.22,5.0,Calm,Calm,-,N/A,,Clear,0,2012-10-12 23:55:00
7:15 PM,68.0,66.2,94,30.21,4.0,Calm,Calm,-,N/A,,Clear,0,2012-10-13 00:15:00
8:15 PM,66.2,66.2,100,30.21,3.0,Calm,Calm,-,N/A,,Clear,0,2012-10-13 01:15:00
8:35 PM,66.2,64.4,94,30.22,4.0,Calm,Calm,-,N/A,,Clear,0,2012-10-13 01:35:00
8:55 PM,66.2,64.4,94,30.22,3.0,Calm,Calm,-,N/A,,Clear,0,2012-10-13 01:55:00
9:15 PM,64.4,64.4,100,30.22,4.0,Calm,Calm,-,N/A,,Clear,0,2012-10-13 02:15:00
9:55 PM,64.4,64.4,100,30.23,4.0,Calm,Calm,-,N/A,,Clear,0,2012-10-13 02:55:00
10:15 PM,64.4,64.4,100,30.23,4.0,Calm,Calm,-,N/A,,Clear,0,2012-10-13 03:15:00
11:35 PM,64.4,62.6,94,30.22,2.0,Calm,Calm,-,N/A,,Clear,0,2012-10-13 04:35:00
11:55 PM,62.6,62.6,100,30.22,2.5,Calm,Calm,-,N/A,,Clear,0,2012-10-13 04:55:00